CW5456 Weather Reports


Display with metric or nautical units.
time (UTC)temp
F
wind
direction
speed
MPH
gust
MPH
rain 1hr
in
rain 24hr
in
rain mn
in
humidity
%
barometer
mb
20240227132531 34 32 2.0 11.0 0.00 0.22 0.00 88 1015.1
20240227132030 34 32 0.0 11.0 0.00 0.22 0.00 89 1015.2
20240227131530 34 31 9.0 11.0 0.00 0.22 0.00 89 1015.1
20240227131031 34 29 6.0 12.0 0.00 0.22 0.00 89 1015.2
20240227130030 34 34 10.0 12.0 0.00 0.22 0.00 90 1015.0
20240227125530 34 28 1.0 9.0 0.00 0.22 0.00 90 1014.9
20240227125030 34 28 0.0 17.0 0.00 0.22 0.00 90 1014.8
20240227124530 34 28 9.0 17.0 0.00 0.22 0.00 90 1014.8
20240227124029 34 29 13.0 13.0 0.00 0.22 0.00 90 1014.7
20240227123530 34 26 4.0 13.0 0.00 0.22 0.00 90 1014.5
20240227123029 34 26 4.0 13.0 0.00 0.22 0.00 91 1014.6
20240227122529 34 11 11.0 12.0 0.00 0.22 0.00 91 1014.7
20240227122030 34 25 12.0 12.0 0.00 0.22 0.00 91 1014.7
20240227121530 34 23 4.0 10.0 0.00 0.22 0.00 91 1014.5
20240227121030 34 21 3.0 7.0 0.00 0.22 0.00 91 1014.5
20240227120029 34 21 7.0 10.0 0.00 0.22 0.00 92 1014.4
20240227115529 34 21 6.0 11.0 0.00 0.22 0.00 92 1014.4
20240227115029 34 20 3.0 13.0 0.00 0.22 0.00 92 1014.4
20240227114529 34 7 10.0 13.0 0.00 0.22 0.00 93 1014.4
20240227114029 33 22 7.0 11.0 0.00 0.22 0.00 92 1014.5
20240227113528 33 27 2.0 3.0 0.00 0.22 0.00 92 1014.3
20240227112528 32 27 0.0 3.0 0.00 0.22 0.00 91 1014.2
20240227112028 32 27 1.0 3.0 0.00 0.22 0.00 91 1014.0
20240227111528 32 27 2.0 2.0 0.00 0.22 0.00 91 1013.9
20240227111028 32 27 2.0 3.0 0.00 0.23 0.00 91 1013.9
20240227110529 32 27 1.0 4.0 0.00 0.23 0.00 91 1013.8
20240227110028 32 27 2.0 4.0 0.00 0.23 0.00 91 1013.6
20240227105528 33 27 2.0 3.0 0.00 0.23 0.00 91 1013.7
20240227105028 33 27 3.0 5.0 0.00 0.23 0.00 91 1013.7
20240227104029 33 27 3.0 4.0 0.00 0.23 0.00 91 1013.7
20240227103028 33 27 2.0 3.0 0.00 0.23 0.00 91 1013.5
20240227102528 33 27 2.0 3.0 0.00 0.24 0.00 91 1013.6
20240227102028 33 27 2.0 3.0 0.00 0.24 0.00 91 1013.4
20240227101527 34 27 0.0 3.0 0.00 0.24 0.00 91 1013.3
20240227101027 34 27 2.0 3.0 0.00 0.24 0.00 91 1013.3
20240227100028 34 27 0.0 5.0 0.00 0.24 0.00 91 1013.1
20240227095528 34 27 4.0 4.0 0.00 0.24 0.00 90 1013.2
20240227094527 34 27 1.0 7.0 0.00 0.24 0.00 91 1013.1
20240227094027 34 27 3.0 7.0 0.00 0.24 0.00 91 1013.0
20240227093527 34 27 2.0 7.0 0.00 0.24 0.00 91 1012.9
20240227092027 34 26 9.0 9.0 0.00 0.24 0.00 91 1012.8
20240227091526 34 26 5.0 11.0 0.00 0.24 0.00 91 1012.7
20240227090527 34 19 5.0 10.0 0.00 0.24 0.00 91 1012.6
20240227090026 34 18 8.0 11.0 0.00 0.24 0.00 91 1012.6
20240227085527 34 18 8.0 12.0 0.00 0.24 0.00 91 1012.6
20240227085026 34 3 11.0 13.0 0.00 0.24 0.00 91 1012.6
20240227084526 34 357 10.0 13.0 0.00 0.24 0.00 91 1012.6
20240227084026 35 7 9.0 13.0 0.00 0.24 0.00 91 1012.5
20240227083026 35 7 11.0 13.0 0.00 0.24 0.00 91 1012.4
20240227082526 35 11 9.0 13.0 0.00 0.24 0.00 90 1012.3
20240227082026 35 6 11.0 16.0 0.00 0.24 0.00 90 1012.3
20240227081525 35 2 9.0 16.0 0.00 0.24 0.00 90 1012.2
20240227081026 35 350 14.0 17.0 0.00 0.24 0.00 91 1012.2
20240227080525 35 360 13.0 17.0 0.00 0.24 0.00 91 1012.0
20240227080026 35 8 12.0 14.0 0.00 0.24 0.00 91 1012.1
20240227075526 35 354 13.0 16.0 0.00 0.24 0.24 91 1012.0
20240227075025 35 356 11.0 16.0 0.00 0.24 0.24 91 1012.0
20240227074526 35 1 11.0 16.0 0.00 0.24 0.24 91 1011.9
20240227074025 35 350 14.0 20.0 0.01 0.24 0.24 90 1011.8
20240227073525 35 358 16.0 22.0 0.01 0.24 0.24 91 1011.8
20240227073026 35 345 20.0 24.0 0.01 0.24 0.24 91 1011.8
20240227072525 35 335 18.0 24.0 0.01 0.24 0.24 90 1011.8
20240227072026 35 350 19.0 20.0 0.01 0.24 0.24 90 1011.8
20240227071525 35 340 14.0 19.0 0.01 0.24 0.24 90 1011.7
20240227071025 35 350 13.0 19.0 0.01 0.24 0.24 90 1011.6
20240227070525 35 304 9.0 17.0 0.02 0.24 0.24 89 1011.5
20240227063524 36 354 18.0 21.0 0.02 0.23 0.23 89 1011.2
20240227063025 36 340 17.0 22.0 0.02 0.23 0.23 89 1011.2
20240227062524 36 356 17.0 22.0 0.02 0.23 0.23 88 1011.1
20240227062025 37 340 20.0 22.0 0.02 0.23 0.23 88 1011.1
20240227061524 37 340 19.0 20.0 0.03 0.23 0.23 87 1011.0
20240227061024 37 340 16.0 21.0 0.03 0.23 0.23 87 1010.9
20240227060524 37 340 14.0 21.0 0.02 0.22 0.22 87 1010.8
20240227060024 36 320 12.0 22.0 0.03 0.22 0.22 86 1010.7
20240227055524 37 288 16.0 22.0 0.03 0.22 0.22 86 1010.7
20240227055024 37 318 15.0 22.0 0.03 0.22 0.22 86 1010.6
20240227054524 37 271 16.0 19.0 0.04 0.22 0.22 86 1010.5
20240227054024 37 318 13.0 20.0 0.04 0.22 0.22 86 1010.4
20240227053524 37 257 15.0 23.0 0.03 0.21 0.21 86 1010.4
20240227053024 37 350 18.0 23.0 0.03 0.21 0.21 87 1010.4
20240227052524 37 345 22.0 26.0 0.04 0.21 0.21 85 1010.3
20240227051524 38 302 18.0 24.0 0.03 0.20 0.20 84 1010.3
20240227051024 38 345 20.0 24.0 0.03 0.20 0.20 84 1010.3
20240227050523 38 250 4.0 21.0 0.04 0.20 0.20 83 1010.1
20240227050024 38 252 15.0 22.0 0.03 0.19 0.19 83 1010.0
20240227045523 38 274 12.0 24.0 0.04 0.19 0.19 83 1009.9
20240227045023 38 249 12.0 24.0 0.04 0.19 0.19 83 1009.9
20240227044523 39 269 16.0 21.0 0.04 0.18 0.18 84 1009.7
20240227044023 39 269 4.0 21.0 0.04 0.18 0.18 85 1009.8
20240227043022 38 275 2.0 11.0 0.05 0.18 0.18 83 1009.7
20240227042523 38 275 5.0 13.0 0.05 0.17 0.17 84 1009.6
20240227042023 38 271 10.0 13.0 0.05 0.17 0.17 83 1009.6
20240227041523 39 277 11.0 15.0 0.06 0.17 0.17 83 1009.6
20240227040522 39 306 10.0 17.0 0.06 0.16 0.16 83 1009.5
20240227040022 39 307 13.0 17.0 0.07 0.16 0.16 83 1009.5
20240227035522 39 279 5.0 20.0 0.06 0.15 0.15 83 1009.3
20240227034522 39 315 14.0 17.0 0.06 0.14 0.14 83 1009.4
20240227033522 39 304 12.0 20.0 0.05 0.13 0.13 84 1009.3
20240227033022 39 322 14.0 21.0 0.05 0.13 0.13 84 1009.3
20240227032522 39 340 14.0 21.0 0.04 0.12 0.12 84 1009.3
20240227032021 39 340 14.0 20.0 0.04 0.12 0.12 84 1009.3
20240227031522 40 340 14.0 20.0 0.03 0.11 0.11 84 1009.2
20240227031022 40 340 15.0 23.0 0.02 0.10 0.10 83 1009.2
20240227030521 40 287 20.0 23.0 0.03 0.10 0.10 83 1009.1
20240227030022 39 252 17.0 18.0 0.02 0.09 0.09 83 1009.2
20240227025521 38 243 4.0 11.0 0.02 0.09 0.09 82 1009.0
20240227025021 37 192 5.0 12.0 0.02 0.09 0.09 84 1009.0
20240227024521 37 206 9.0 13.0 0.01 0.08 0.08 87 1009.0
20240227024022 36 224 10.0 13.0 0.01 0.08 0.08 88 1008.8
20240227023521 36 191 0.0 9.0 0.02 0.08 0.08 88 1008.7
20240227023021 36 132 2.0 2.0 0.02 0.08 0.08 88 1008.7
20240227022521 36 132 0.0 2.0 0.02 0.08 0.08 88 1008.6
20240227022021 36 132 1.0 2.0 0.02 0.08 0.08 88 1008.5
20240227021521 37 132 0.0 5.0 0.03 0.08 0.08 87 1008.3
20240227020521 37 132 3.0 4.0 0.02 0.07 0.07 87 1008.3
20240227020021 37 133 0.0 4.0 0.02 0.07 0.07 87 1008.3
20240227015520 37 132 3.0 5.0 0.03 0.07 0.07 87 1008.3
20240227014520 38 132 0.0 4.0 0.03 0.07 0.07 87 1008.2
20240227014021 38 133 0.0 4.0 0.03 0.07 0.07 87 1008.3
20240227013520 37 132 0.0 4.0 0.02 0.06 0.06 88 1008.3
20240227013020 37 132 0.0 4.0 0.02 0.06 0.06 88 1008.1
20240227012520 37 132 4.0 5.0 0.02 0.06 0.06 87 1008.1
20240227012021 37 132 1.0 5.0 0.02 0.06 0.06 87 1007.8
20240227011522 37 132 2.0 6.0 0.02 0.05 0.05 87 1007.7
20240227011020 37 132 2.0 6.0 0.02 0.05 0.05 87 1007.7
20240227010520 37 131 5.0 6.0 0.02 0.05 0.05 87 1007.6
20240227010020 37 129 2.0 4.0 0.02 0.05 0.05 86 1007.5
20240227005020 38 129 0.0 4.0 0.01 0.04 0.04 86 1007.6
20240227004020 38 129 0.0 5.0 0.01 0.04 0.04 85 1007.5
20240227003520 38 129 2.0 5.0 0.01 0.04 0.04 85 1007.5
20240227003020 38 129 3.0 5.0 0.01 0.04 0.04 85 1007.5
20240227001520 39 129 6.0 8.0 0.00 0.03 0.03 85 1007.6
20240227000519 39 129 4.0 11.0 0.00 0.03 0.03 84 1007.6
20240227000019 39 131 2.0 11.0 0.00 0.03 0.03 84 1007.7
20240226235019 39 137 9.0 9.0 0.00 0.03 0.03 83 1007.8
20240226234019 39 122 2.0 10.0 0.00 0.03 0.03 83 1007.9
20240226233518 39 131 3.0 9.0 0.00 0.03 0.03 83 1007.9
20240226233018 39 132 6.0 9.0 0.00 0.03 0.03 82 1007.9
20240226232519 39 131 4.0 8.0 0.00 0.03 0.03 81 1007.9
20240226232018 39 131 5.0 8.0 0.00 0.03 0.03 79 1007.7
20240226231519 40 130 1.0 8.0 0.00 0.03 0.03 77 1007.8
20240226230548 41 167 3.0 8.0 0.00 0.03 0.03 74 1007.9
20240226230018 42 148 6.0 7.0 0.00 0.03 0.03 73 1007.8
20240226225548 42 50 3.0 7.0 0.00 0.03 0.03 72 1007.6
20240226225018 43 15 3.0 12.0 0.00 0.03 0.03 71 1007.6
20240226224548 43 15 4.0 12.0 0.00 0.03 0.03 72 1007.5
20240226224047 43 11 12.0 12.0 0.00 0.03 0.03 72 1007.4
20240226223547 43 5 7.0 12.0 0.00 0.03 0.03 71 1007.6
20240226222047 43 360 11.0 12.0 0.00 0.03 0.03 72 1007.7
20240226221047 43 350 10.0 16.0 0.00 0.03 0.03 72 1007.7
20240226220547 43 356 12.0 17.0 0.00 0.03 0.03 74 1007.8
20240226220018 43 350 14.0 17.0 0.00 0.03 0.03 73 1007.9
20240226215517 43 354 15.0 18.0 0.00 0.03 0.03 74 1007.9
20240226214517 43 354 16.0 19.0 0.00 0.03 0.03 72 1007.9
20240226214046 43 359 13.0 19.0 0.00 0.03 0.03 71 1008.0
20240226213518 43 350 16.0 19.0 0.00 0.03 0.03 71 1008.0
20240226213016 43 354 15.0 19.0 0.00 0.03 0.03 71 1008.0
20240226212016 43 345 16.0 20.0 0.00 0.03 0.03 71 1008.0
20240226211516 43 357 17.0 19.0 0.00 0.03 0.03 69 1008.1
20240226211046 43 345 12.0 18.0 0.00 0.03 0.03 71 1008.1
20240226210016 43 284 14.0 19.0 0.00 0.03 0.03 69 1008.0
20240226205546 44 316 12.0 17.0 0.00 0.03 0.03 71 1008.0
20240226205016 43 340 10.0 15.0 0.00 0.03 0.03 71 1008.1
20240226204516 43 322 8.0 14.0 0.00 0.03 0.03 70 1008.1
20240226204016 43 300 6.0 14.0 0.00 0.03 0.03 70 1008.1
20240226203546 43 283 4.0 11.0 0.00 0.03 0.03 69 1008.2
20240226203045 43 277 8.0 11.0 0.00 0.03 0.03 70 1008.2
20240226202515 43 264 8.0 13.0 0.00 0.03 0.03 70 1008.1
20240226202016 43 248 2.0 17.0 0.00 0.03 0.03 71 1008.2
20240226201546 43 281 10.0 18.0 0.00 0.03 0.03 71 1008.3
20240226201045 43 314 14.0 18.0 0.00 0.03 0.03 71 1008.3
20240226200546 43 279 11.0 16.0 0.00 0.03 0.03 72 1008.3
20240226200045 43 272 3.0 16.0 0.00 0.03 0.03 72 1008.2
20240226195046 43 295 12.0 16.0 0.00 0.03 0.03 72 1008.2
20240226194545 43 266 9.0 16.0 0.00 0.03 0.03 72 1008.2
20240226194045 43 283 5.0 15.0 0.00 0.03 0.03 72 1008.2
20240226193545 43 273 9.0 15.0 0.00 0.03 0.03 73 1008.1
20240226193045 43 287 8.0 10.0 0.00 0.03 0.03 73 1008.0
20240226192544 43 280 0.0 14.0 0.00 0.03 0.03 73 1008.0
20240226192045 43 266 8.0 15.0 0.00 0.03 0.03 74 1008.0
20240226191545 43 236 7.0 16.0 0.00 0.03 0.03 74 1008.0
20240226191044 43 271 0.0 16.0 0.00 0.03 0.03 75 1008.1
20240226190544 43 252 3.0 15.0 0.00 0.03 0.03 74 1007.9
20240226190044 43 286 2.0 12.0 0.00 0.03 0.03 77 1008.0
20240226185044 43 205 3.0 8.0 0.00 0.03 0.03 79 1007.9
20240226184544 42 266 2.0 8.0 0.00 0.03 0.03 81 1008.0
20240226184044 43 242 4.0 7.0 0.00 0.03 0.03 82 1008.0
20240226183044 42 127 0.0 4.0 0.00 0.03 0.03 84 1007.9
20240226181543 41 127 1.0 6.0 0.00 0.03 0.03 87 1007.9
20240226181043 40 127 3.0 9.0 0.00 0.03 0.03 87 1007.9
20240226180543 40 126 4.0 12.0 0.00 0.03 0.03 87 1007.8
20240226180043 41 135 5.0 12.0 0.00 0.03 0.03 87 1007.8
20240226175545 41 118 7.0 10.0 0.00 0.03 0.03 88 1007.8
20240226175013 41 117 8.0 10.0 0.00 0.03 0.03 90 1007.8
20240226174543 41 127 3.0 9.0 0.00 0.03 0.03 90 1007.7
20240226174043 40 127 3.0 10.0 0.00 0.03 0.03 90 1007.7
20240226173543 40 137 2.0 10.0 0.00 0.03 0.03 90 1007.7
20240226173043 40 135 6.0 10.0 0.00 0.03 0.03 91 1007.6
20240226172543 39 143 8.0 8.0 0.00 0.03 0.03 91 1007.5
20240226172044 39 92 2.0 4.0 0.00 0.03 0.03 91 1007.6
20240226171543 38 92 0.0 3.0 0.00 0.03 0.03 91 1007.5
20240226171043 38 92 1.0 5.0 0.00 0.03 0.03 91 1007.5
20240226170542 39 92 2.0 5.0 0.00 0.03 0.03 92 1007.4
20240226170043 38 122 3.0 4.0 0.00 0.03 0.03 92 1007.4
20240226165542 38 123 0.0 4.0 0.00 0.03 0.03 92 1007.3
20240226165042 38 124 0.0 0.0 0.00 0.03 0.03 93 1007.4
20240226164542 38 124 0.0 2.0 0.00 0.03 0.03 93 1007.3
20240226164043 38 124 0.0 3.0 0.00 0.03 0.03 93 1007.2
20240226163542 38 124 0.0 3.0 0.00 0.03 0.03 93 1007.2
20240226163042 37 124 2.0 3.0 0.00 0.03 0.03 93 1007.1
20240226162542 37 124 0.0 7.0 0.00 0.03 0.03 93 1007.0
20240226162042 37 124 2.0 7.0 0.00 0.03 0.03 93 1006.9
20240226161542 37 125 4.0 7.0 0.00 0.03 0.03 93 1006.7
20240226161043 36 125 4.0 7.0 0.00 0.03 0.03 93 1006.7
20240226160541 36 125 3.0 5.0 0.00 0.03 0.03 93 1006.6
20240226160041 35 125 1.0 5.0 0.00 0.03 0.03 93 1006.7
20240226155541 35 125 3.0 5.0 0.00 0.03 0.03 93 1006.6
20240226155042 35 125 2.0 3.0 0.01 0.03 0.03 93 1006.5
20240226154541 35 125 0.0 2.0 0.01 0.03 0.03 92 1006.5
20240226154041 35 124 2.0 2.0 0.01 0.03 0.03 92 1006.5
20240226153041 35 125 0.0 0.0 0.01 0.03 0.03 92 1006.5
20240226152541 35 124 0.0 0.0 0.01 0.03 0.03 93 1006.6
20240226152041 35 125 0.0 2.0 0.01 0.03 0.03 93 1006.6
20240226151541 35 124 0.0 2.0 0.01 0.03 0.03 93 1006.5
20240226151040 35 125 0.0 0.0 0.01 0.03 0.03 92 1006.5
20240226150040 34 125 0.0 2.0 0.01 0.03 0.03 92 1006.5
20240226145541 34 124 0.0 3.0 0.01 0.03 0.03 92 1006.4
20240226145041 34 125 0.0 4.0 0.00 0.02 0.02 92 1006.4
20240226144540 34 124 2.0 5.0 0.00 0.02 0.02 92 1006.3
20240226144041 34 124 4.0 5.0 0.00 0.02 0.02 92 1006.3
20240226143040 34 125 1.0 3.0 0.00 0.02 0.02 92 1006.2
20240226142540 34 124 1.0 3.0 0.00 0.02 0.02 92 1006.2
20240226141041 34 124 1.0 4.0 0.00 0.02 0.02 92 1006.0
20240226140541 34 125 3.0 7.0 0.00 0.02 0.02 92 1006.0
20240226140040 34 124 1.0 7.0 0.00 0.02 0.02 92 1006.0
20240226135540 34 127 4.0 4.0 0.00 0.02 0.02 92 1006.0
20240226135040 34 127 3.0 6.0 0.00 0.02 0.02 91 1005.9
20240226134539 34 127 1.0 7.0 0.00 0.02 0.02 92 1005.9
20240226134040 34 127 4.0 7.0 0.00 0.02 0.02 92 1005.8
20240226133539 34 166 3.0 5.0 0.00 0.02 0.02 91 1005.9
20240226133039 35 166 1.0 5.0 0.00 0.02 0.02 91 1005.8